Location: Karaa?a�
(36.7158°N, 30.4165°E)
Time: 09:34:36
(UTC+00:00)

Cosmos 2184 Rocket - Pass Details

Date: 09 April 2020
Orbit: 958 x 1003 km, 82.9° (Epoch: 31 May)

Event Time Altitude Azimuth Distance (km) Brightness Sun altitude
Rises 17:18:07 0° 354° (N) 3,694 7.4 -10.6°
Reaches altitude 10° 17:20:39 10° 356° (N) 2,736 6.7 -11.1°
Maximum altitude 17:26:56 80° 83° (E) 989 3.9 -12.2°
Drops below altitude 10° 17:33:06 10° 171° (S) 2,691 6.0 -13.4°
Sets 17:35:35 0° 172° (S) 3,630 6.7 -13.9°
